CW9971 Weather Reports


Display with metric or nautical units.
time (UTC)temp
F
wind
direction
speed
MPH
gust
MPH
rain 1hr
in
rain 24hr
in
rain mn
in
humidity
%
barometer
mb
20260504200510 73 235 2.0 10.0 0.00 0.00 0.00 50 1011.8
20260504200042 73 274 2.0 6.0 0.00 0.00 0.00 52 1011.9
20260504195556 73 11 1.0 7.0 0.00 0.00 0.00 52 1011.9
20260504195009 73 108 1.0 8.0 0.00 0.00 0.00 56 1012.1
20260504194541 73 211 4.0 8.0 0.00 0.00 0.00 56 1012.3
20260504194101 73 166 3.0 7.0 0.00 0.00 0.00 58 1012.2
20260504193525 72 263 2.0 10.0 0.00 0.00 0.00 51 1012.3
20260504193053 72 293 5.0 10.0 0.00 0.00 0.00 55 1012.4
20260504190502 71 205 2.0 9.0 0.00 0.00 0.00 54 1013.1
20260504190019 71 154 4.0 9.0 0.00 0.00 0.00 53 1013.1
20260504185556 71 146 4.0 8.0 0.00 0.00 0.00 52 1013.2
20260504185033 71 140 3.0 8.0 0.00 0.00 0.00 53 1013.3
20260504184555 70 144 2.0 7.0 0.00 0.00 0.00 55 1013.3
20260504184018 70 223 2.0 8.0 0.00 0.00 0.00 51 1013.4
20260504183542 70 268 2.0 9.0 0.00 0.00 0.00 51 1013.5
20260504183012 70 158 2.0 9.0 0.00 0.00 0.00 54 1013.6
20260504182534 70 279 4.0 9.0 0.00 0.00 0.00 55 1013.6
20260504182052 70 247 3.0 7.0 0.00 0.00 0.00 57 1013.7
20260504181513 70 320 2.0 7.0 0.00 0.00 0.00 55 1013.7
20260504181035 69 71 0.0 7.0 0.00 0.00 0.00 51 1013.8
20260504180507 69 223 2.0 10.0 0.00 0.00 0.00 55 1014.0
20260504180029 68 55 1.0 10.0 0.00 0.00 0.00 52 1014.1
20260504175551 69 216 2.0 9.0 0.00 0.00 0.00 58 1014.1
20260504175020 68 325 3.0 9.0 0.00 0.00 0.00 54 1014.1
20260504174545 68 247 0.0 5.0 0.00 0.00 0.00 54 1014.2
20260504174057 67 286 3.0 5.0 0.00 0.00 0.00 57 1014.2
20260504173525 67 249 2.0 7.0 0.00 0.00 0.00 58 1014.3
20260504173044 68 149 2.0 10.0 0.00 0.00 0.00 55 1014.5
20260504172512 67 346 4.0 10.0 0.00 0.00 0.00 57 1014.4
20260504172031 67 167 0.0 9.0 0.00 0.00 0.00 56 1014.4
20260504171544 66 157 4.0 9.0 0.00 0.00 0.00 53 1014.5
20260504171101 67 247 2.0 9.0 0.00 0.00 0.00 53 1014.6
20260504170526 66 267 3.0 10.0 0.00 0.00 0.00 56 1014.7
20260504151058 54 145 1.0 3.0 0.00 0.00 0.00 70 1016.8
20260504150515 54 171 1.0 3.0 0.00 0.00 0.00 72 1016.9
20260504141024 52 126 2.0 4.0 0.00 0.00 0.00 78 1017.9
20260504140545 52 145 1.0 5.0 0.00 0.00 0.00 79 1017.9
20260504130517 49 128 0.0 3.0 0.00 0.00 0.00 80 1017.5
20260504110556 38 288 1.0 2.0 0.00 0.00 0.00 96 1016.0
20260504100506 37 285 0.0 1.0 0.00 0.00 0.00 95 1016.3
20260504081545 37 313 0.0 1.0 0.00 0.00 0.00 94 1016.4
20260504081100 37 313 0.0 0.0 0.00 0.00 0.00 94 1016.4
20260504080516 37 313 0.0 1.0 0.00 0.00 0.00 94 1016.3
20260504050556 40 313 0.0 1.0 0.00 0.00 0.00 90 1016.4
20260504050021 40 313 0.0 1.0 0.00 0.00 0.00 90 1016.5
20260504045545 40 313 0.0 1.0 0.00 0.00 0.00 90 1016.4
20260504045011 40 313 0.0 0.0 0.00 0.00 0.00 91 1016.3
20260504044533 40 313 0.0 0.0 0.00 0.00 0.00 91 1016.3
20260504044054 40 313 0.0 0.0 0.00 0.00 0.00 90 1016.3
20260504043520 40 313 0.0 1.0 0.00 0.00 0.00 90 1016.2
20260504043044 41 313 0.0 1.0 0.00 0.00 0.00 90 1016.2
20260504042511 41 313 0.0 0.0 0.00 0.00 0.00 90 1016.2
20260504042031 41 313 0.0 0.0 0.00 0.00 0.00 90 1016.2
20260504041551 41 313 0.0 2.0 0.00 0.00 0.00 89 1016.2
20260504041008 41 313 0.0 2.0 0.00 0.00 0.00 89 1016.2
20260504040537 41 313 0.0 1.0 0.00 0.00 0.00 89 1016.2
20260504040056 41 313 0.0 1.0 0.00 0.00 0.00 88 1016.1
20260504035527 42 317 0.0 1.0 0.00 0.00 0.00 88 1016.0
20260504035048 42 317 0.0 2.0 0.00 0.00 0.00 88 1016.1
20260504034517 42 317 0.0 2.0 0.00 0.00 0.00 88 1016.1
20260504034036 42 310 0.0 1.0 0.00 0.00 0.00 87 1016.0
20260504033507 42 309 0.0 2.0 0.00 0.00 0.00 86 1016.0
20260504033026 42 316 0.0 2.0 0.00 0.00 0.00 86 1016.1
20260504032552 43 333 1.0 2.0 0.00 0.00 0.00 86 1016.0
20260504032013 43 313 0.0 2.0 0.00 0.00 0.00 86 1016.0
20260504031533 43 313 0.0 2.0 0.00 0.00 0.00 86 1016.0
20260504031101 43 330 1.0 2.0 0.00 0.00 0.00 86 1016.0
20260504030543 43 305 0.0 2.0 0.00 0.00 0.00 85 1015.8
20260504030021 43 305 0.0 2.0 0.00 0.00 0.00 85 1015.9
20260504025534 43 277 1.0 2.0 0.00 0.00 0.00 85 1016.0
20260504025058 43 313 0.0 2.0 0.00 0.00 0.00 85 1015.8
20260504024524 43 327 1.0 2.0 0.00 0.00 0.00 85 1015.8
20260504024051 44 314 0.0 2.0 0.00 0.00 0.00 85 1015.8
20260504023526 44 314 0.0 2.0 0.00 0.00 0.00 84 1016.0
20260504023057 44 309 0.0 1.0 0.00 0.00 0.00 84 1016.0
20260504022520 44 306 0.0 1.0 0.00 0.00 0.00 83 1015.9
20260504022041 44 312 0.0 0.0 0.00 0.00 0.00 84 1015.8
20260504021512 44 312 0.0 0.0 0.00 0.00 0.00 84 1015.7
20260504021041 44 312 0.0 0.0 0.00 0.00 0.00 85 1015.6
20260504020556 44 312 0.0 0.0 0.00 0.00 0.00 84 1015.6
20260504020015 45 311 0.0 0.0 0.00 0.00 0.00 83 1015.6
20260504015540 45 311 0.0 2.0 0.00 0.00 0.00 83 1015.7
20260504015011 45 311 0.0 2.0 0.00 0.00 0.00 81 1015.7
20260504014539 45 295 0.0 2.0 0.00 0.00 0.00 81 1015.7
20260504014053 46 296 0.0 2.0 0.00 0.00 0.00 81 1015.6
20260504013514 46 296 0.0 0.0 0.00 0.00 0.00 81 1015.4
20260504013045 46 291 0.0 0.0 0.00 0.00 0.00 81 1015.4
20260504012508 46 291 0.0 0.0 0.00 0.00 0.00 81 1015.4
20260504012029 46 291 0.0 0.0 0.00 0.00 0.00 79 1015.5
20260504011552 46 291 0.0 1.0 0.00 0.00 0.00 79 1015.6
20260504011012 47 291 0.0 1.0 0.00 0.00 0.00 78 1015.6
20260504010535 47 291 0.0 1.0 0.00 0.00 0.00 79 1015.6
20260504010055 47 291 0.0 1.0 0.00 0.00 0.00 77 1015.5
20260504005514 48 291 0.0 0.0 0.00 0.00 0.00 77 1015.5
20260504005038 48 291 0.0 0.0 0.00 0.00 0.00 75 1015.5
20260504004507 49 291 0.0 0.0 0.00 0.00 0.00 75 1015.5
20260504004031 49 291 0.0 0.0 0.00 0.00 0.00 74 1015.4
20260504003553 49 291 0.0 0.0 0.00 0.00 0.00 75 1015.3
20260504003015 50 291 0.0 0.0 0.00 0.00 0.00 74 1015.1
20260504002535 50 291 0.0 0.0 0.00 0.00 0.00 72 1015.2
20260504002058 51 291 0.0 0.0 0.00 0.00 0.00 71 1015.2
20260504001521 51 291 0.0 1.0 0.00 0.00 0.00 69 1015.0
20260504001042 51 291 0.0 1.0 0.00 0.00 0.00 72 1014.9
20260504000504 52 288 0.0 0.0 0.00 0.00 0.00 70 1014.9
20260504000023 52 286 0.0 0.0 0.00 0.00 0.00 68 1015.0
20260503235559 52 286 0.0 2.0 0.00 0.00 0.00 69 1015.1
20260503235016 54 341 0.0 2.0 0.00 0.00 0.00 66 1015.0
20260503234539 53 313 0.0 1.0 0.00 0.00 0.00 66 1015.0
20260503234011 54 303 0.0 2.0 0.00 0.00 0.00 64 1015.0
20260503233532 55 302 0.0 2.0 0.00 0.00 0.00 64 1015.2
20260503233101 56 301 0.0 3.0 0.00 0.00 0.00 60 1015.2
20260503232516 58 265 0.0 3.0 0.00 0.00 0.00 51 1015.2
20260503232038 58 266 0.0 3.0 0.00 0.00 0.00 52 1015.2
20260503231551 59 292 0.0 3.0 0.00 0.00 0.00 51 1015.3
20260503231012 59 298 1.0 4.0 0.00 0.00 0.00 50 1015.4
20260503230535 59 268 2.0 4.0 0.00 0.00 0.00 49 1015.4
20260503230007 59 266 1.0 6.0 0.00 0.00 0.00 48 1015.4
20260503225528 60 340 2.0 6.0 0.00 0.00 0.00 45 1015.3
20260503225051 60 346 1.0 8.0 0.00 0.00 0.00 47 1015.4
20260503224521 61 202 2.0 8.0 0.00 0.00 0.00 46 1015.4
20260503224045 61 263 1.0 8.0 0.00 0.00 0.00 46 1015.5
20260503223505 61 169 2.0 8.0 0.00 0.00 0.00 46 1015.6
20260503223037 61 173 1.0 6.0 0.00 0.00 0.00 44 1015.6
20260503222559 61 247 1.0 7.0 0.00 0.00 0.00 44 1015.6
20260503222033 62 287 3.0 7.0 0.00 0.00 0.00 45 1015.5
20260503221603 62 165 1.0 4.0 0.00 0.00 0.00 43 1015.6
20260503221020 62 155 0.0 7.0 0.00 0.00 0.00 42 1015.7
20260503220548 61 232 1.0 7.0 0.00 0.00 0.00 45 1015.8
20260503220008 62 248 2.0 7.0 0.00 0.00 0.00 43 1015.8
20260503215539 62 226 1.0 8.0 0.00 0.00 0.00 43 1015.7
20260503215101 62 208 3.0 10.0 0.00 0.00 0.00 42 1015.7
20260503214522 62 227 4.0 10.0 0.00 0.00 0.00 42 1015.9
20260503214042 62 231 1.0 5.0 0.00 0.00 0.00 40 1016.0
20260503213504 62 217 2.0 8.0 0.00 0.00 0.00 42 1016.1
20260503213027 62 149 2.0 8.0 0.00 0.00 0.00 42 1016.1
20260503212550 62 289 1.0 4.0 0.00 0.00 0.00 40 1016.1
20260503212053 62 347 2.0 7.0 0.00 0.00 0.00 40 1016.2
20260503211522 62 213 3.0 7.0 0.00 0.00 0.00 39 1016.2
20260503211044 62 252 2.0 7.0 0.00 0.00 0.00 46 1016.2
20260503210604 62 272 2.0 9.0 0.00 0.00 0.00 40 1016.3
20260503210012 62 131 4.0 9.0 0.00 0.00 0.00 40 1016.2
20260503205536 62 160 4.0 9.0 0.00 0.00 0.00 40 1016.3
20260503205054 62 228 3.0 9.0 0.00 0.00 0.00 38 1016.4
20260503204517 62 175 3.0 11.0 0.00 0.00 0.00 42 1016.4
20260503204037 62 237 7.0 11.0 0.00 0.00 0.00 40 1016.5
20260503203511 62 143 3.0 8.0 0.00 0.00 0.00 39 1016.5
20260503203046 62 273 2.0 11.0 0.00 0.00 0.00 39 1016.6
20260503202546 62 261 3.0 12.0 0.00 0.00 0.00 43 1016.7
20260503202044 62 105 4.0 11.0 0.00 0.00 0.00 40 1016.7
20260503201506 61 275 1.0 9.0 0.00 0.00 0.00 43 1016.9
20260503201031 62 253 4.0 12.0 0.00 0.00 0.00 40 1016.9